Miscellaneous Local Product
Issued by NWS North Platte, NE

Home | Current Version | Previous Version | Graphics & Text | Print | Product List | Glossary On
Versions: 1 2 3 4 5 6 7 8 9 10 11 12 13 14 15 16 17 18 19 20 21 22 23 24 25 26 27 28 29 30 31 32 33 34 35 36 37 38 39 40 41 42 43 44 45 46 47 48 49 50
000
AXUS43 KLBF 230510
MISLBF


WESTERN AND NORTH CENTRAL NEBRASKA HOURLY WEATHER ROUNDUP
NATIONAL WEATHER SERVICE NORTH PLATTE NE
1100 PM CST MON DEC 22 2014

***STATIONS NOT REPORTING VARIABLES SUCH AS SKY/WEATHER OR
PRESSURE ARE PROVIDED BY THE NEBRASKA DEPARTMENT OF
ROADS...RAWS...AND APRS NETWORKS...AND ARE NOT UNDER
NATIONAL WEATHER SERVICE QUALITY CONTROL***

...OBSERVATIONS IN AND NEAR THE EASTERN PANHANDLE OF NEBRASKA...

CITY           SKY/WX    TMP DP  RH WIND       PRES   REMARKS
PINE RIDGE     LGT SNOW  28  24  85 N22G32    29.73R VSB 3/4 WCI  14
CHADRON        LGT SNOW  30  28  92 N9        29.76R VSB 1   WCI  22
ALLIANCE       CLOUDY    29  27  92 N18       29.69R WCI  16
SIDNEY         CLOUDY    32  23  69 NW29G39   29.71R WCI  18
WHITECLAY        N/A     27  25  93 W18         N/A  WCI  13
CRESCENT LAKE    N/A     28  25  89 N16G26      N/A  WCI  16
LISCO            N/A     34  25  68 W25         N/A  WCI  21
BIG SPRINGS      N/A     34  29  83 N5          N/A  WCI  30
$$

...OBSERVATIONS IN NORTH CENTRAL NEBRASKA...

CITY           SKY/WX    TMP DP  RH WIND       PRES   REMARKS
VALENTINE      CLOUDY    27  23  85 NW21G35   29.61R WCI  13
THEDFORD       LGT SNOW  29  26  90 NW18G28   29.60R WCI  16
AINSWORTH      LGT SNOW  28  25  90 NW26G33   29.58R WCI  13
O`NEILL        LGT SNOW  32  31  98 NW16G26   29.54R WCI  21
BROKEN BOW     FLURRIES  31  25  78 NW26G33   29.56R WCI  17
BROWNLEE         N/A     27  23  84 NW25        N/A  WCI  12
SPRINGVIEW       N/A     29  26  86 W14G24      N/A  WCI  18
BREWSTER         N/A     30  28  93 NW23        N/A  WCI  17
ROSE             N/A     32  32 100 SW16        N/A  WCI  21
SARGENT          N/A     30  26  86 NW7G14      N/A  WCI  23
COMSTOCK         N/A     35  31  86 NW16        N/A  WCI  25
CHAMBERS         N/A     30  28  90 N6G17       N/A  WCI  24
EWING            N/A     32  31  97 CALM        N/A
$$

...OBSERVATIONS IN SOUTHWEST NEBRASKA AND FAR NORTHEAST COLORADO...

CITY           SKY/WX    TMP DP  RH WIND       PRES   REMARKS
WRAY           FAIR      32  25  76 W18G25    29.73R WCI  20
HOLYOKE        FAIR      36  27  69 NW23G35   29.70R WCI  24
IMPERIAL       CLOUDY    37  23  56 NW26G38   29.69R WCI  25
OGALLALA       FLURRIES  32  28  83 NW23G37   29.67S WCI  19
NORTH PLATTE   LGT SNOW  31  25  78 NW20G30   29.63R WCI  19
MCCOOK         LGT SNOW  33  30  88 N25G32    29.67R FOG     WCI  20
LEXINGTON      CLOUDY    34  29  82 NW18G24   29.60R WCI  23
PAXTON           N/A     32  28  86 NW12        N/A  WCI  23
BRADY            N/A     30  26  84 MISG        N/A
GOTHENBURG       N/A     31  24  75 NW17        N/A  WCI  20
CALLAWAY         N/A     29  26  89 NW20        N/A  WCI  16
$$

...NORTH PLATTE AREA...

CITY           SKY/WX    TMP DP  RH WIND       PRES   REMARKS
AIRPORT        LGT SNOW  31  25  78 NW20G30   29.63R WCI  19
DOWNTOWN         N/A     31  25  78 NW14G24     N/A  WCI  21
$$

...SOME WEATHER OBSERVATIONS FROM AROUND THE REGION...

CITY           SKY/WX    TMP DP  RH WIND       PRES   REMARKS
DENVER         MOCLDY    27  16  63 NW16G26   29.84R WCI  15
LARAMIE        MOCLDY    17  14  88 NW17G24   29.83R WCI   1
CHEYENNE       CLOUDY    24  15  68 NW23G36   29.78R WCI   9
SCOTTSBLUFF    LGT SNOW  31  27  85 NW21      29.78R FOG     WCI  18
RAPID CITY     LGT SNOW  26  23  88 N30G37    29.75R FOG     WCI  10
PIERRE         LGT SNOW  31  28  89 NW22G32   29.61R VSB 3/4 WCI  18
WINNER         LGT SNOW  30  27  88 NW24G35   29.59R FOG     WCI  16
SIOUX FALLS    LGT RAIN  35  33  92 E10       29.50R WCI  27
OMAHA          DRIZZLE   38  36  92 NW10      29.47R WCI  31
GRAND ISLAND   CLOUDY    34  28  79 NW17G25   29.55R WCI  23
KANSAS CITY    PTCLDY    38  36  92 SW9       29.54R WCI  31
WICHITA        PTCLDY    42  29  59 W13       29.65R
HAYS           CLEAR     37  21  52 W18G24    29.65R WCI  27
LIBERAL        CLEAR     32  21  64 NW12      29.80R WCI  23
GOODLAND       CLEAR     34  23  64 NW26G33   29.72R WCI  21
$$



USA.gov is the U.S. government's official web portal to all federal, state and local government web resources and services.